Location: Betz
(49.1556°N, 2.9558°E)
Time: 23:29:59
(UTC+00:00)

Cosmos 1190 Rocket - Pass Details

Date: 18 September 2019
Orbit: 757 x 780 km, 74.1° (Epoch: 15 October)

Event Time Altitude Azimuth Distance (km) Brightness Sun altitude
Rises 19:18:30 0° 337° (NNW) 3,274 7.9 -14.1°
Reaches altitude 10° 19:20:55 10° 340° (NNW) 2,340 7.1 -14.5°
Maximum altitude 19:26:13 70° 64° (ENE) 827 4.0 -15.3°
Enters shadow 19:29:58 20° 146° (SE) 1,748 5.4 -15.8°
